Weather History for KLSV - February, 2014

Change the Weather History Date:

Wednesday, February 5, 2014

  Actual Average Record
Temperature  
Mean Temperature 46 °F -  
Max Temperature 56 °F 58 °F - (-1)
Min Temperature 35 °F 36 °F - (-1)
Degree Days  
Heating Degree Days 20    
Moisture  
Dew Point 17 °F    
Average Humidity 34    
Maximum Humidity 44    
Minimum Humidity 22    
Precipitation  
Precipitation 0.00 in - - ()
Sea Level Pressure  
Sea Level Pressure 30.04 in    
Wind  
Wind Speed 2 mph (NNE)    
Max Wind Speed 5 mph    
Max Gust Speed -    
Visibility 10 miles    
Events      
Averages and records for this station are not official NWS values.
T = Trace of Precipitation, MM = Missing Value Source: NWS Daily Summary

Daily Weather History Graph

Daily Weather History Graph

Search for Another Location

Airport or City:

Trip Planner

Search our weather history database for the weather conditions in past years. The results will help you decide how hot, cold, wet, or windy it might be!

Date:

Astronomy

Feb. 05, 2014 Rise Set
Actual Time 6:37 AM PST 5:11 PM PST
Civil Twilight 6:10 AM PST 5:37 PM PST
Nautical Twilight 5:40 AM PST 6:08 PM PST
Astronomical Twilight 5:10 AM PST 6:38 PM PST
Moon 10:07 AM PST (2/5) 11:56 PM PST (2/5)
Length of Visible Light 11h 26m
Length of Day
10h 33m
Waxing Crescent, 40% of the Moon is Illuminated
Feb 5
Waxing Crescent
Feb 6
First Quarter
Feb 14
Full
Feb 22
Last Quarter
Mar 1
New

Hourly Weather History & Observations

Time (PST) Temp. Windchill Dew Point Humidity Pressure Visibility Wind Dir Wind Speed Gust Speed Precip Events Conditions
12:58 AM 39.4 °F - 17.2 °F 41% 30.05 in 10.0 mi East 2.3 mph - N/A   Clear
1:58 AM 37.9 °F 35.5 °F 17.2 °F 43% 30.06 in 10.0 mi NE 3.5 mph - N/A   Clear
2:58 AM 39.0 °F - 16.0 °F 39% 30.07 in 10.0 mi Variable 2.3 mph - N/A   Overcast
3:58 AM 38.7 °F - 14.7 °F 38% 30.06 in 10.0 mi Calm Calm - N/A   Partly Cloudy
4:58 AM 37.2 °F 33.6 °F 14.5 °F 40% 30.06 in 10.0 mi North 4.6 mph - N/A   Mostly Cloudy
5:58 AM 35.1 °F - 15.3 °F 44% 30.07 in 10.0 mi NW 2.3 mph - N/A   Mostly Cloudy
6:58 AM 36.1 °F 33.5 °F 16.0 °F 44% 30.07 in 10.0 mi North 3.5 mph - N/A   Mostly Cloudy
7:58 AM 38.7 °F - 16.5 °F 41% 30.10 in 10.0 mi NE 2.3 mph - N/A   Mostly Cloudy
8:58 AM 43.7 °F - 15.8 °F 33% 30.13 in 10.0 mi Calm Calm - N/A   Overcast
9:58 AM 46.8 °F - 16.5 °F 30% 30.14 in 10.0 mi North 2.3 mph - N/A   Scattered Clouds
10:58 AM 50.5 °F - 14.2 °F 23% 30.11 in 10.0 mi Variable 2.3 mph - N/A   Clear
11:58 AM 52.5 °F - 15.6 °F 23% 30.06 in 10.0 mi Variable 3.5 mph - N/A   Partly Cloudy
12:58 PM 54.1 °F - 18.3 °F 25% 30.02 in 10.0 mi Variable 2.3 mph - N/A   Clear
1:58 PM 56.8 °F - 18.1 °F 22% 30.00 in 10.0 mi SW 4.6 mph - N/A   Clear
2:58 PM 55.8 °F - 19.6 °F 24% 29.98 in 10.0 mi SSE 2.3 mph - N/A   Clear
3:58 PM 56.3 °F - 19.9 °F 24% 29.98 in 10.0 mi SSW 2.3 mph - N/A   Clear
4:58 PM 55.6 °F - 19.4 °F 24% 29.99 in 10.0 mi Calm Calm - N/A   Clear
5:58 PM 52.3 °F - 20.7 °F 29% 29.99 in 10.0 mi East 4.6 mph - N/A   Clear
6:58 PM 46.0 °F 43.9 °F 20.1 °F 36% 30.01 in 10.0 mi NE 4.6 mph - N/A   Clear
7:58 PM 43.9 °F 41.3 °F 19.2 °F 37% 30.01 in 10.0 mi NNE 4.6 mph - N/A   Clear
8:58 PM 44.2 °F - 19.6 °F 37% 30.02 in 7.0 mi Calm Calm - N/A   Clear
9:58 PM 41.4 °F - 19.0 °F 41% 30.02 in 5.0 mi North 1.2 mph - N/A   Haze
10:58 PM 39.0 °F - 18.0 °F 43% 30.02 in 10.0 mi Calm Calm - N/A   Clear
11:58 PM 38.3 °F - 17.8 °F 44% 30.01 in 10.0 mi NE 2.3 mph - N/A   Clear